Tracking 19794 objects as of 23-Jul-2019
HD Live streaming from Space Station
objects crossing your sky now

AMOS 2

Track AMOS 2 now!
AMOS 2 is classified as:


NORAD ID: 28132
Int'l Code: 2003-059A
Perigee: 36,028.6 km
Apogee: 36,053.7 km
Inclination: 2.4 °
Period: 1,448.8 minutes
Semi major axis: 42412 km
RCS: 36.2156 m2 (large)
Launch date: December 27, 2003
Source: Israel (ISRA)
Launch site: TYURATAM MISSILE AND SPACE COMPLEX (TTMTR)

Ku-band communications, Europe, Middle East, East Coast of USA.
aabbcc
Your satellite tracking list
Your tracking list is empty




NASA's NSSDC Master Catalog

Two Line Element Set (TLE):
1 28132U 03059A   19202.79910464 +.00000096 +00000-0 +00000-0 0  9992
2 28132 002.4036 086.2722 0002966 014.7099 353.9562 00.99395680056972
Source of the keplerian elements: AFSPC